Location: Unspecified
(0.0000°N, 0.0000°E)
Time: 00:51:37
(UTC+00:00)

Envisat - Pass Details

Date: 25 June 2022
Orbit: 764 x 765 km, 98.2° (Epoch: 28 June)

Event Time Altitude Azimuth Distance (km) Brightness Sun altitude
Rises 03:03:28 0° 48° (NE) 3,215 7.1 -40.3°
Reaches altitude 10° 03:06:56 10° 73° (ENE) 2,294 6.1 -39.5°
Maximum altitude 03:09:25 14° 103° (ESE) 2,046 5.6 -39.0°
Enters shadow 03:09:32 14° 104° (ESE) 2,046 5.6 -39.0°
